Location: Jarocin
(51.9626°N, 17.5030°E)
Time: 12:04:33
(UTC+01:00)

ISS - Pass Details

Date: 24 January 2019
Orbit: 403 x 411 km, 51.6° (Epoch: 21 February)

Event Time Altitude Azimuth Distance (km) Brightness Sun altitude
Rises 19:17:39 0° 238° (WSW) 2,332 0.8 -26.5°
Reaches altitude 10° 19:19:46 10° 232° (SW) 1,475 -0.4 -26.9°
Enters shadow 19:20:29 15° 228° (SW) 1,198 -1.0 -27.0°
